Weather WX

World > North America > United States > North Dakota

Fargo, North Dakota Regional Weather

Lat: 46.88N, Lon: 96.82W
Wx Zone: NDZ039
Warning FLW WEATHER ALERT - (More Info. Click Here) Warning
Feedback

Fargo, ND Regional Weather

Expires:201907171700;;202755
ASUS43 KBIS 171610
RWRND 

NORTH DAKOTA REGIONAL WEATHER ROUNDUP
NATIONAL WEATHER SERVICE BISMARCK ND
1100 AM CDT WED JUL 17 2019

NOTE: "FAIR" INDICATES FEW OR NO CLOUDS BELOW 12,000 FEET WITH NO
SIGNIFICANT WEATHER AND/OR OBSTRUCTIONS TO VISIBILITY.



NDZ022-023-025-028>030-036>039-047>053-171700-
SOUTHEAST NORTH DAKOTA
  
CITY           SKY/WX    TMP DP  RH WIND       PRES   REMARKS
FARGO          MOSUNNY   78  70  76 SE13      29.73F                  
JAMESTOWN      MOSUNNY   76  66  71 S10       29.74F                  
$$ 

  

SKY/WX - Weather  TMP - Temperature  DP - Dew Point  RH - Relative Humidity
WIND - Wind Direction/Speed PRES - Barometric Pressure VSB - Visibility
WCI - Wind Chill Index E13G22 Wind - East Wind 13 mph/Gusts of 22 mph